Regional Weather Roundup
Issued by NWS

Home | Current Version | Previous Version | Text Only | Print | Product List | Glossary Off
Versions: 1 2 3 4 5 6 7 8 9 10 11 12 13 14 15 16 17 18 19 20 21 22 23 24 25 26 27 28 29 30 31 32 33 34 35 36 37 38 39 40 41 42 43 44 45 46 47 48 49 50

000
ASUS43 KFSD 181810
RWRSD

WEATHER ROUNDUP FOR SOUTH DAKOTA
NATIONAL WEATHER SERVICE SIOUX FALLS SD
100 PM CDT MON SEP 18 2017

NOTE: "FAIR" INDICATES FEW OR NO CLOUDS BELOW 12,000 FEET WITH NO
SIGNIFICANT WEATHER AND/OR OBSTRUCTIONS TO VISIBILITY.


SDZ001>005-009-010-012>017-181900-
NORTHWEST AND NORTH CENTRAL SOUTH DAKOTA

CITY           SKY/WX    TMP DP  RH WIND       PRES   REMARKS
BUFFALO          N/A     75  37  25 S17G23    29.77F
FAITH            N/A     68  43  40 S7        29.87F
MOBRIDGE       SUNNY     68  53  58 CALM      29.83F
$$

SDZ012>016-024>037-041>051-057-063-072>074-181900-
SOUTHWEST AND SOUTH CENTRAL SOUTH DAKOTA

CITY           SKY/WX    TMP DP  RH WIND       PRES   REMARKS
RAPID CTY ARPT SUNNY     72  46  40 SE9       29.88F
PIERRE         SUNNY     71  51  49 VRB3      29.84F
CUSTER         SUNNY     68  27  21 VRB7G16   29.97F
PHILIP         SUNNY     76  44  32 NE7       29.85F
PINE RIDGE     SUNNY     75  42  30 W8        29.91
SPEARFISH      FAIR      70  37  30 VRB6      29.88F
WINNER         FAIR      74  57  55 SW7       29.87F
$$

SDZ004>011-016>023-039-040-181900-
NORTHEAST SOUTH DAKOTA

CITY           SKY/WX    TMP DP  RH WIND       PRES   REMARKS
ABERDEEN       SUNNY     72  55  55 S10       29.85F
WATERTOWN      CLOUDY    68  60  75 S12       29.88F
BROOKINGS      CLOUDY    63  58  83 SE15      29.92F
SISSETON         N/A     71  58  63 S12G20    29.86F
$$

SDZ017-020-022-023-036>040-048>070-181900-
SOUTHEAST SOUTH DAKOTA

CITY           SKY/WX    TMP DP  RH WIND       PRES   REMARKS
SIOUX FALLS    CLOUDY    65  63  93 SE8       29.92F
HURON          SUNNY     73  57  57 S7        29.86F
CHAMBERLAIN    SUNNY     76  57  53 SW5       29.86S
MITCHELL       SUNNY     75  58  55 S10       29.87F
YANKTON        PTSUNNY   71  62  73 VRB3      29.91F
$$

ABBREVIATIONS USED IN REMARKS
   TC - TEMPERATURE IN CELSIUS
  WCI - WIND CHILL INDEX
   HX - HEAT INDEX
  VSB - VISIBILITY





USA.gov is the U.S. government's official web portal to all federal, state and local government web resources and services.